This demonstration page uses our WeatherBlox Daily Observations layout. Learn more.

Left ArrowRight Arrow

36.19886, -115.1175

Hourly Observations for December 15, 2018

Temp ( °F °C ) Dew Point ( °F °C ) Humidity (%) Winds ( mph kmh ) Pressure ( in mb ) Visibility ( mi km ) Precip ( " mm )
12:53 am 00:53 Clear 47 8.3 24 -4.4 41 41 N 6 9 30.25 1024 10 16.0934 N/A
1:53 am 01:53 Clear 47 8.3 22 -5.6 37 37 NNW 6 9 30.25 1024 10 16.0934 N/A
2:53 am 02:53 Clear 46 7.8 22 -5.6 38 38 SSW 5 7 30.23 1024 10 16.0934 N/A
3:53 am 03:53 Clear 44 6.7 23 -5 43 43 NNE 6 9 30.24 1024 10 16.0934 N/A
4:53 am 04:53 Clear 41 5 21 -6.1 45 45 NNW 5 7 30.25 1024 10 16.0934 N/A
5:53 am 05:53 Clear 40 4.4 21 -6.1 47 47 NW 6 9 30.25 1024 10 16.0934 N/A
6:53 am 06:53 Sunny 40 4.4 21 -6.1 47 47 NW 3 6 30.25 1025 10 16.0934 N/A
7:53 am 07:53 Sunny 44 6.7 20 -6.7 38 38 N 3 6 30.26 1025 10 16.0934 N/A
8:53 am 08:53 Sunny 49 9.4 18 -7.8 29 29 NW 7 11 30.27 1025 10 16.0934 N/A
9:53 am 09:53 Sunny 53 11.7 18 -7.8 25 25 N N/A 30.27 1025 10 16.0934 N/A
10:53 am 10:53 Sunny 55 12.8 18 -7.8 23 23 SE 3 6 30.25 1024 10 16.0934 N/A
11:53 am 11:53 Sunny 57 13.9 15 -9.4 19 19 N N/A 30.22 1024 10 16.0934 N/A
12:53 pm 12:53 Sunny 59 15 15 -9.4 18 18 VRB 5 7 30.19 1023 10 16.0934 N/A
1:53 pm 13:53 Sunny 60 15.6 15 -9.4 17 17 SSE 5 7 30.17 1022 10 16.0934 N/A
2:53 pm 14:53 Sunny 61 16.1 15 -9.4 17 17 S 6 9 30.17 1022 10 16.0934 N/A
3:53 pm 15:53 Sunny 60 15.6 15 -9.4 17 17 SSE 3 6 30.19 1022 10 16.0934 N/A
4:53 pm 16:53 Clear 58 14.4 16 -8.9 19 19 N N/A 30.21 1023 10 16.0934 N/A
5:53 pm 17:53 Clear 54 12.2 18 -7.8 24 24 NW 6 9 30.24 1024 10 16.0934 N/A
6:53 pm 18:53 Clear 50 10 21 -6.1 32 32 NNW 5 7 30.26 1025 10 16.0934 N/A
7:53 pm 19:53 Clear 48 8.9 20 -6.7 33 33 NW 7 11 30.26 1025 10 16.0934 N/A
8:53 pm 20:53 Clear 47 8.3 19 -7.2 33 33 NNW 6 9 30.26 1025 10 16.0934 N/A
9:53 pm 21:53 Clear 46 7.8 18 -7.8 32 32 W 5 7 30.26 1025 10 16.0934 N/A
10:53 pm 22:53 Clear 44 6.7 21 -6.1 40 40 NNW 7 11 30.27 1025 10 16.0934 N/A
11:53 pm 23:53 Clear 43 6.1 19 -7.2 38 38 NW 6 9 30.27 1025 10 16.0934 N/A

Powered by AerisWeather